Meteo Giornale » Osservazioni meteo Australia » Gladstone
ore: 04:30 - Osservazioni Meteo Gladstone
Lat. 23° 52' S Lon. 151° 13' E Alt. 18 metri s.l.m.
17 °C
Sereno
Temp. 24 Ore
16 °C
25 °C
Sud/Sud-Est
9.3 Km/h
Dew point 12 °C
Umidità 72 %
Visibilità 10 Km
Il sole sorge alle ore 06:06
Il sole tramonta alle ore 17:44
| Data e Ora | Cielo e Fenomeni | T °C | DP °C | Um. % | Pres. hPa | Vis. km | Vento km/h | |
|---|---|---|---|---|---|---|---|---|
| Oggi h: 04:30 | Sereno | 17 | 12 | 72 | 1026 | 10 | S/SE 9.3 | |
| Oggi h: 04:00 | Sereno | 17 | 12 | 72 | 1026 | 10 | S/SE 11.1 | |
| Oggi h: 03:30 | Sereno | 17 | 12 | 72 | 1026 | 10 | S/SE 9.3 | |
| Oggi h: 03:00 | Sereno | 16 | 12 | 77 | 1026 | 10 | S/SE 7.4 | |
| Oggi h: 02:30 | Nuvoloso | 17 | 12 | 72 | 1026 | 10 | S 7.4 | |
| Oggi h: 02:00 | Nuvoloso | 17 | 12 | 72 | 1026 | 10 | S 9.3 | |
| Oggi h: 01:30 | Sereno | 17 | 12 | 72 | 1027 | 10 | S 9.3 | |
| Oggi h: 01:00 | Sereno | 17 | 12 | 72 | 1027 | 10 | S 9.3 | |
| Oggi h: 00:30 | Sereno | 17 | 12 | 72 | 1027 | 10 | S 9.3 | |
| Oggi h: 00:00 | Sereno | 18 | 13 | 72 | 1027 | 10 | S/SE 9.3 | |
| Ieri h: 23:30 | Sereno | 18 | 12 | 67 | 1028 | 10 | S/SE 11.1 | |
| Ieri h: 23:00 | Sereno | 18 | 12 | 67 | 1028 | 10 | S/SE 11.1 | |
| Ieri h: 22:30 | Sereno | 19 | 12 | 63 | 1028 | 10 | S/SE 9.3 | |
| Ieri h: 22:00 | Sereno | 18 | 11 | 63 | 1028 | 10 | S/SE 9.3 | |
| Ieri h: 21:30 | Sereno | 19 | 11 | 59 | 1028 | 10 | SE 11.1 | |
| Ieri h: 21:00 | Sereno | 19 | 12 | 63 | 1028 | 10 | E/SE 11.1 | |
| Ieri h: 20:30 | Sereno | 20 | 13 | 64 | 1027 | 10 | E/SE 14.8 | |
| Ieri h: 20:00 | Sereno | 20 | 13 | 64 | 1027 | 10 | E/SE 16.7 | |
| Ieri h: 19:30 | Sereno | 20 | 12 | 59 | 1027 | 10 | E/SE 18.5 | |
| Ieri h: 19:00 | Sereno | 20 | 12 | 59 | 1027 | 10 | E/SE 22.2 | |
| Ieri h: 18:30 | Sereno | 21 | 12 | 56 | 1026 | 10 | E 24 | |
| Ieri h: 18:00 | Sereno | 21 | 12 | 56 | 1026 | 10 | E 27.8 | |
| Ieri h: 17:30 | Sereno | 21 | 13 | 60 | 1026 | 10 | E 29.6 | |
| Ieri h: 17:00 | Sereno | 22 | 11 | 49 | 1025 | 10 | E 33.3 | |
| Ieri h: 16:30 | Sereno | 23 | 11 | 46 | 1025 | 10 | E 29.6 | |
| Ieri h: 16:00 | Sereno | 23 | 11 | 46 | 1025 | 10 | E 29.6 | |
| Ieri h: 15:30 | Sereno | 23 | 11 | 46 | 1025 | 10 | E 31.5 | |
| Ieri h: 15:00 | Sereno | 23 | 12 | 49 | 1025 | 10 | E 35.2 | |
| Ieri h: 14:30 | Sereno | 24 | 12 | 47 | 1025 | 10 | E 31.5 | |
| Ieri h: 14:00 | Sereno | 24 | 12 | 47 | 1025 | 10 | E 29.6 | |
| Ieri h: 13:30 | Molto Nuvoloso | 24 | 12 | 47 | 1026 | 9 | E 29.6 | |
| Ieri h: 13:00 | Sereno | 25 | 13 | 47 | 1026 | 10 | E 29.6 | |
| Ieri h: 12:30 | Sereno | 25 | 13 | 47 | 1026 | 10 | E 29.6 | |
| Ieri h: 12:00 | Sereno | 25 | 12 | 44 | 1026 | 10 | E 29.6 | |
| Ieri h: 11:30 | Sereno | 24 | 12 | 47 | 1027 | 10 | E 20.3 | |
| Ieri h: 11:00 | Molto Nuvoloso | 24 | 11 | 43 | 1027 | 10 | E 22.2 | |
| Ieri h: 10:30 | Poco Nuvoloso | 23 | 12 | 49 | 1028 | 10 | E/SE 22.2 | |
| Ieri h: 10:00 | Poco Nuvoloso | 23 | 12 | 49 | 1028 | 10 | SE 20.3 | |
| Ieri h: 09:30 | Sereno | 22 | 12 | 53 | 1028 | 10 | E/SE 22.2 | |
| Ieri h: 09:00 | Sereno | 22 | 13 | 56 | 1028 | 10 | SE 20.3 | |
| Ieri h: 08:30 | Sereno | 21 | 12 | 56 | 1028 | 10 | SE 18.5 | |
| Ieri h: 08:00 | Sereno | 20 | 13 | 64 | 1028 | 10 | SE 20.3 | |
| Ieri h: 07:30 | Sereno | 19 | 13 | 68 | 1027 | 10 | S/SE 14.8 | |
| Ieri h: 07:00 | Sereno | 18 | 13 | 72 | 1027 | 10 | S/SE 13 | |
| Ieri h: 06:30 | Sereno | 17 | 13 | 77 | 1027 | 10 | S/SE 13 | |
| Ieri h: 06:00 | Sereno | 17 | 13 | 77 | 1026 | 10 | S/SE 9.3 | |
| Ieri h: 05:30 | Sereno | 16 | 13 | 82 | 1026 | 10 | S/SE 9.3 | |
| Ieri h: 05:00 | Sereno | 16 | 13 | 82 | 1026 | 10 | S 7.4 | |



